[[{"header":{"parameterUnit":"m.s-1","parameterCategory":1,"la1":30.2992,"la2":30.254,"lo1":-89.0895,"lo2":-89.0443,"dy":0.0025,"dx":0.0025,"nx":19,"ny":19,"refTime":"2026-05-21T09:00:00:Z","depth":0,"parameterNumber":2,"parameterNumberName":"U-component_of_WINDS"},"data":[0,0,0,-2.7475,-2.7477,-2.7582,-2.7582,-2.7709,-2.771,0,0,0,0,0,0,0,0,0,0,0,-2.7443,-2.7444,-2.7475,-2.7477,-2.7582,-2.7582,-2.7709,-2.771,0,0,0,0,0,0,0,0,0,0,0,-2.7443,-2.7444,-2.7445,-2.7478,-2.7582,-2.7582,-2.7709,-2.7632,0,0,0,0,0,0,0,0,0,0,-2.7531,-2.7501,-2.7443,-2.7445,-2.7478,-2.7582,-2.7582,-2.7628,-2.7636,-2.766,0,-2.7683,0,-2.7699,-2.7719,-2.7719,0,0,0,-2.7478,-2.7494,-2.7523,-2.7445,-2.7479,-2.7581,-2.7535,-2.7633,-2.7642,-2.7671,-2.7685,-2.769,-2.7701,-2.7719,-2.772,-2.7858,-2.7858,0,0,-2.7472,-2.7461,-2.7517,-2.753,-2.7516,-2.7531,-2.7538,-2.7639,-2.7652,-2.7685,-2.7693,-2.7703,-2.772,-2.7721,-2.7857,-2.7858,0,0,0,-2.7455,-2.7457,-2.7484,-2.7524,-2.7544,-2.7534,-2.7542,-2.7647,-2.7657,-2.7694,-2.7704,-2.7721,-2.7722,-2.7856,-2.7857,-2.7876,0,0,0,-2.7452,-2.7447,-2.7481,-2.7475,-2.7542,-2.7598,-2.7549,-2.765,-2.7662,-2.7704,-2.7721,-2.7724,-2.7856,-2.7857,-2.7875,-2.7887,0,0,0,-2.7436,-2.7445,-2.746,-2.7474,-2.7519,-2.7596,-2.7612,-2.7653,-2.7668,-2.7719,-2.7724,-2.7855,-2.7857,-2.7873,-2.7884,-2.7918,0,0,0,-2.7417,-2.7477,-2.746,-2.7531,-2.7518,-2.7608,-2.7611,-2.7679,-2.7725,-2.7722,-2.7856,-2.7857,-2.7872,-2.7883,-2.7916,-2.7944,-2.7955,0,0,-2.7486,-2.7485,-2.7527,-2.7516,-2.7606,-2.7593,-2.7685,-2.7738,-2.7752,-2.7821,-2.7824,-2.7875,-2.7884,-2.7918,-2.8023,-2.8031,0,0,0,-2.7546,-2.7576,-2.7602,-2.7646,-2.7687,-2.7723,-2.7762,-2.7781,-2.784,-2.7786,-2.7898,-2.7904,-2.7924,-2.7937,-2.7944,-2.7961,-2.7864,-2.7863,-2.7863,-2.7628,-2.7643,-2.7713,-2.774,-2.7782,-2.782,-2.7854,-2.7886,-2.789,-2.7915,-2.7936,-2.7998,-2.8013,-2.8019,-2.8036,-2.7953,-2.7953,-2.7953,-2.7953,-2.773,-2.7773,-2.7775,-2.7843,-2.7858,-2.7914,-2.7952,-2.7952,-2.8005,-2.7985,-2.8003,-2.7977,-2.8028,-2.8043,-2.7955,-2.7954,-2.7954,-2.7954,-2.7954,-2.7784,-2.7807,-2.7829,-2.7891,-2.7937,-2.7961,-2.8011,-2.8023,-2.8034,-2.8052,-2.8072,-2.8072,-2.8071,-2.8061,-2.8061,-2.8062,-2.8062,-2.8062,-2.8062,-2.7831,-2.7855,-2.7897,-2.7944,-2.7971,-2.8008,-2.8046,-2.8072,-2.8104,-2.8108,-2.8109,-2.8107,-2.8031,-2.801,-2.8065,-2.8065,-2.8064,-2.8064,-2.8064,-2.7925,-2.7905,-2.797,-2.7997,-2.8051,-2.8093,-2.8107,-2.8159,-2.8183,-2.8206,-2.8201,-2.8143,-2.8142,-2.8136,-2.8119,-2.8199,-2.8199,-2.8199,-2.8199,-2.797,-2.797,-2.8037,-2.8079,-2.8122,-2.814,-2.8208,-2.8236,-2.8261,-2.8276,-2.8266,-2.8245,-2.8238,-2.8241,-2.8233,-2.8217,-2.832,-2.832,-2.8321,-2.8027,-2.8032,-2.8089,-2.8115,-2.8157,-2.8192,-2.8255,-2.8301,-2.8326,-2.8326,-2.8287,-2.8282,-2.8247,-2.8236,-2.8234,-2.8222,-2.8192,0,0]},{"header":{"parameterUnit":"m.s-1","parameterCategory":1,"la1":30.2992,"la2":30.254,"lo1":-89.0895,"lo2":-89.0443,"dy":0.0025,"dx":0.0025,"nx":19,"ny":19,"refTime":"2026-05-21T09:00:00:Z","depth":0,"parameterNumber":3,"parameterNumberName":"V-component_of_WINDS"},"data":[0,0,0,3.0752,3.0754,3.0835,3.0835,3.0944,3.0945,0,0,0,0,0,0,0,0,0,0,0,3.0731,3.0732,3.0752,3.0754,3.0835,3.0835,3.0944,3.0945,0,0,0,0,0,0,0,0,0,0,0,3.0731,3.0732,3.0733,3.0754,3.0835,3.0836,3.0944,3.0881,0,0,0,0,0,0,0,0,0,0,3.0801,3.0785,3.0731,3.0733,3.0755,3.0835,3.0836,3.0877,3.0885,3.091,0,3.0934,0,3.0942,3.0953,3.0954,0,0,0,3.0751,3.0779,3.0798,3.0733,3.0755,3.0835,3.0798,3.0881,3.0889,3.0919,3.0935,3.0939,3.0944,3.0954,3.0954,3.1116,3.1117,0,0,3.0746,3.0747,3.0793,3.0804,3.0792,3.0795,3.08,3.0886,3.0903,3.0936,3.0942,3.0945,3.0955,3.0955,3.1115,3.1117,0,0,0,3.0735,3.0744,3.0761,3.0799,3.0814,3.0797,3.0803,3.0899,3.0905,3.0943,3.0947,3.0955,3.0957,3.1114,3.1116,3.1164,0,0,0,3.0733,3.0737,3.0759,3.076,3.0812,3.0858,3.0815,3.0899,3.0909,3.0946,3.0955,3.0958,3.1113,3.1115,3.116,3.1185,0,0,0,3.0724,3.0736,3.075,3.076,3.0796,3.0856,3.0867,3.0901,3.0911,3.0954,3.0958,3.1113,3.1115,3.1157,3.118,3.1231,0,0,0,3.0715,3.0787,3.075,3.0833,3.0795,3.0885,3.0866,3.0933,3.0975,3.0956,3.1114,3.1116,3.1156,3.1177,3.1228,3.1274,3.1294,0,0,3.0806,3.0798,3.0847,3.0816,3.0914,3.0873,3.0978,3.1013,3.1015,3.1082,3.1086,3.1161,3.118,3.123,3.1399,3.1415,0,0,0,3.0876,3.0911,3.0937,3.0979,3.1011,3.1041,3.1062,3.1076,3.1134,3.105,3.1192,3.1203,3.1233,3.1255,3.1268,3.1295,3.1126,3.1125,3.1125,3.1004,3.1007,3.1089,3.1102,3.1143,3.1167,3.1201,3.1224,3.1211,3.1245,3.1265,3.1368,3.1394,3.1404,3.1431,3.1289,3.1289,3.1289,3.1289,3.1139,3.119,3.1177,3.1252,3.1255,3.1317,3.1344,3.1334,3.1393,3.1351,3.1377,3.1333,3.1421,3.1445,3.1293,3.1292,3.1292,3.1291,3.1291,3.1224,3.1249,3.1268,3.1334,3.1383,3.1394,3.1454,3.1452,3.1451,3.1477,3.15,3.15,3.15,3.1488,3.1489,3.1489,3.1489,3.149,3.149,3.1305,3.1325,3.1376,3.1421,3.1451,3.1489,3.1518,3.1546,3.1578,3.1573,3.1573,3.1559,3.1429,3.1397,3.1496,3.1495,3.1494,3.1493,3.1493,3.1442,3.1413,3.1491,3.1522,3.1577,3.1629,3.1628,3.1689,3.1712,3.1742,3.1724,3.1627,3.1617,3.1607,3.1581,3.1721,3.1721,3.1721,3.1721,3.1515,3.1512,3.1595,3.1645,3.1693,3.1703,3.1794,3.1818,3.1838,3.1853,3.1833,3.1798,3.1787,3.1784,3.177,3.1746,3.1925,3.1925,3.1925,3.1601,3.1603,3.1681,3.1703,3.1748,3.1786,3.1873,3.193,3.1946,3.1934,3.1866,3.1858,3.1801,3.1782,3.1767,3.1745,3.17,0,0]}]]